Change the Weather History Date:

Wednesday, January 23, 2013

  Actual Average Record
Temperature  
Mean Temperature 29 °F -  
Max Temperature 35 °F 21 °F 48 °F (2014)
Min Temperature 23 °F 5 °F -30 °F (1971)
Degree Days  
Heating Degree Days 36    
Moisture  
Dew Point 23 °F    
Average Humidity 72    
Maximum Humidity 92    
Minimum Humidity 59    
Precipitation  
Precipitation 0.00 in - - ()
Sea Level Pressure  
Sea Level Pressure 29.35 in    
Wind  
Wind Speed 7 mph (North)    
Max Wind Speed 16 mph    
Max Gust Speed -    
Visibility 10 miles    
Events      
Averages and records for this station are not official NWS values.
T = Trace of Precipitation, MM = Missing Value Source: NWS Daily Summary

Daily Weather History Graph

Daily Weather History Graph

Search for Another Location

Airport or City:

Trip Planner

Search our weather history database for the weather conditions in past years. The results will help you decide how hot, cold, wet, or windy it might be!

Date:

Astronomy

Jan. 23, 2013 Rise Set
Actual Time 9:39 AM AKST 4:37 PM AKST
Civil Twilight 8:46 AM AKST 5:31 PM AKST
Nautical Twilight 7:50 AM AKST 6:26 PM AKST
Astronomical Twilight 6:58 AM AKST 7:18 PM AKST
Moon 1:38 PM AKST (1/23) 7:17 AM AKST (1/23)
Length of Visible Light 8h 45m
Length of Day
6h 57m
Waxing Gibbous, 90% of the Moon is Illuminated
Jan 23
Waxing Gibbous
Jan 26
Full
Feb 3
Last Quarter
Feb 9
New
Feb 17
First Quarter

Hourly Weather History & Observations

Time (AKST) Temp. Windchill Dew Point Humidity Pressure Visibility Wind Dir Wind Speed Gust Speed Precip Events Conditions
12:53 AM 27.0 °F - 21.0 °F 78% 29.43 in 10.0 mi Calm Calm - N/A   Mostly Cloudy
1:53 AM 27.0 °F - 21.0 °F 78% 29.42 in 10.0 mi Calm Calm - N/A   Mostly Cloudy
2:53 AM 33.1 °F 27.7 °F 19.9 °F 59% 29.41 in 10.0 mi Variable 5.8 mph - N/A   Mostly Cloudy
3:53 AM 28.9 °F 23.9 °F 23.0 °F 78% 29.40 in 10.0 mi NNE 4.6 mph - N/A   Overcast
4:53 AM 34.0 °F 24.6 °F 21.9 °F 61% 29.38 in 10.0 mi North 13.8 mph - N/A   Overcast
5:53 AM 32.0 °F 21.6 °F 25.0 °F 75% 29.37 in 10.0 mi North 15.0 mph - N/A   Mostly Cloudy
6:53 AM 33.1 °F 23.9 °F 24.1 °F 70% 29.36 in 10.0 mi North 12.7 mph - N/A   Overcast
7:53 AM 33.1 °F 22.6 °F 24.1 °F 70% 29.35 in 10.0 mi North 16.1 mph - N/A   Overcast
8:53 AM 33.1 °F 25.5 °F 26.1 °F 75% 29.35 in 10.0 mi North 9.2 mph - N/A   Overcast
9:53 AM 32.0 °F 21.6 °F 25.0 °F 75% 29.34 in 10.0 mi NNW 15.0 mph - N/A   Overcast
10:53 AM 33.1 °F 24.9 °F 25.0 °F 72% 29.34 in 10.0 mi North 10.4 mph - N/A   Overcast
11:53 AM 34.0 °F 26.0 °F 25.0 °F 70% 29.34 in 10.0 mi North 10.4 mph - N/A   Overcast
12:53 PM 34.0 °F 25.0 °F 24.1 °F 67% 29.34 in 10.0 mi North 12.7 mph - N/A   Overcast
1:53 PM 34.0 °F 24.6 °F 23.0 °F 64% 29.33 in 10.0 mi North 13.8 mph - N/A   Overcast
2:53 PM 34.0 °F 24.6 °F 23.0 °F 64% 29.31 in 10.0 mi North 13.8 mph - N/A   Mostly Cloudy
3:53 PM 35.1 °F 26.4 °F 23.0 °F 61% 29.31 in 10.0 mi North 12.7 mph - N/A   Mostly Cloudy
4:53 PM 34.0 °F 24.2 °F 21.9 °F 61% 29.30 in 10.0 mi North 15.0 mph - N/A   Scattered Clouds
5:53 PM 33.1 °F 24.4 °F 21.9 °F 64% 29.31 in 10.0 mi North 11.5 mph - N/A   Clear
6:53 PM 28.0 °F 21.7 °F 25.0 °F 88% 29.33 in 10.0 mi NE 5.8 mph - N/A   Clear
7:53 PM 26.1 °F - 24.1 °F 92% 29.34 in 10.0 mi Calm Calm - N/A   Clear
8:53 PM 23.0 °F 17.0 °F 19.9 °F 88% 29.35 in 10.0 mi ENE 4.6 mph - N/A   Clear
9:53 PM 26.1 °F - 23.0 °F 88% 29.36 in 10.0 mi Calm Calm - N/A   Clear
10:53 PM 26.1 °F 17.6 °F 17.1 °F 69% 29.37 in 10.0 mi NNE 8.1 mph - N/A   Clear
11:53 PM 26.1 °F 16.8 °F 17.1 °F 69% 29.37 in 10.0 mi North 9.2 mph - N/A   Clear